Temperature
20 20 21 21 18 16 17 18 18 18 18 18 18 18 17 17 17 17 17 17 17 17 17 17 17 17 17 17 17 17 17 17 17 17 17 17 18 17 17 17 17 17 18 18 18 18 17 17 18
21 21 21 20 16 16 17 18 18 18 18 19 18 18 17 17 17 17 17 17 17 17 17 17 17 17 17 17 17 17 17 17 17 17 17 17 17 17 17 17 17 17 17 17 18 17 17 17 17
21 21 20 16 16 17 18 18 18 18 19 19 18 18 17 17 17 17 17 17 17 17 17 17 17 17 17 17 17 17 17 17 17 17 17 17 17 17 17 17 17 17 17 17 17 17 17 17 17
21 21 19 16 17 17 18 18 18 18 19 19 18 17 17 17 17 17 17 17 17 17 17 17 17 17 17 17 17 17 17 17 17 17 17 17 17 17 17 17 17 17 17 17 17 17 17 17 17
21 20 16 16 17 18 18 18 19 18 18 18 18 17 17 17 17 17 17 17 17 17 17 17 17 17 17 17 17 17 17 17 17 17 17 17 17 17 17 17 17 17 17 17 17 17 17 17 17
21 17 16 17 18 18 18 19 19 18 18 18 18 17 17 17 17 17 17 17 17 17 17 17 17 17 17 17 17 17 17 17 17 17 17 17 17 16 16 16 16 16 16 16 16 16 16 16 16
19 16 16 17 17 18 19 19 19 18 18 18 18 17 17 17 17 17 17 17 17 17 17 17 17 17 17 17 17 17 17 17 17 17 17 17 16 16 16 16 16 16 16 16 16 16 16 16 16
20 16 17 17 17 18 19 19 19 19 18 18 18 17 16 17 17 17 17 17 17 17 17 17 17 17 17 17 17 17 17 17 17 17 17 17 16 16 16 16 16 16 16 16 16 16 16 16 16
20 16 17 17 18 18 19 19 19 19 18 18 18 18 17 17 17 17 17 17 17 17 17 17 17 17 17 17 17 17 17 17 17 16 16 16 16 16 16 16 16 16 16 16 16 16 16 16 16
19 16 18 18 18 18 19 19 19 18 18 17 17 17 17 17 17 17 17 17 17 17 17 16 17 16 16 16 16 16 16 16 16 16 16 16 16 16 16 16 16 16 16 15 15 15 15 15 15
18 17 18 19 19 19 19 19 19 18 17 17 17 17 17 17 17 16 16 16 16 16 16 16 16 16 16 16 16 16 16 16 16 16 16 16 16 16 16 16 16 16 16 15 15 15 15 15 15
18 18 19 19 20 20 19 19 18 18 18 19 18 18 17 17 16 16 16 16 16 16 16 16 16 16 16 16 16 16 16 16 16 16 16 16 16 16 16 16 15 15 15 15 15 15 15 15 15
18 19 19 20 20 19 19 18 18 18 18 18 18 17 17 17 16 16 16 16 16 16 16 16 16 16 16 16 16 16 16 16 16 16 16 15 16 15 15 15 15 15 15 15 15 15 15 15 14
19 19 19 19 19 19 18 18 18 18 18 18 17 17 17 17 16 16 16 16 16 16 16 16 16 16 16 16 15 15 15 15 15 15 15 15 15 15 15 15 15 15 15 15 15 15 15 15 14
19 18 18 19 19 18 18 17 17 18 17 17 17 17 17 17 17 17 16 16 16 16 16 16 16 16 16 15 15 15 15 15 15 15 15 15 15 15 15 15 15 15 15 15 15 14 14 14 14
19 18 17 18 18 19 18 17 17 17 17 16 16 16 17 16 16 16 16 16 16 16 16 16 16 16 15 15 15 15 15 15 15 15 15 15 15 15 15 15 15 15 15 14 14 14 14 14 14
17 17 18 18 18 18 17 17 17 17 17 16 16 16 16 16 16 16 16 16 16 16 16 16 15 15 15 15 15 15 15 15 15 15 15 15 15 15 14 14 14 14 14 14 14 14 14 14 14
17 17 18 18 18 17 17 16 16 16 16 16 16 16 16 16 16 16 16 16 16 16 16 16 15 15 15 15 15 15 15 15 15 15 14 14 14 14 14 14 14 14 14 14 14 14 14 14 14
18 18 18 18 18 17 16 16 16 16 15 15 15 16 16 16 16 16 16 16 16 16 16 15 15 15 15 15 15 15 15 15 14 14 14 14 14 14 14 14 14 14 14 14 14 14 14 14 13
18 18 18 18 18 17 16 16 16 15 15 15 15 16 16 16 16 16 16 16 16 16 16 15 15 15 15 15 15 15 15 14 14 14 14 14 14 14 14 14 14 14 14 14 14 14 14 13 13
18 18 18 18 17 17 17 16 16 15 15 15 15 16 16 16 16 16 16 16 16 16 15 15 15 15 15 15 15 15 14 14 14 14 14 14 14 14 13 13 13 13 13 13 13 13 13 13 13
18 18 18 18 17 16 17 15 16 15 14 14 15 15 16 16 16 16 16 16 16 15 15 15 15 15 14 14 14 14 14 14 14 14 14 14 14 13 13 13 13 13 13 13 13 13 13 13 13
18 18 18 17 16 15 15 15 15 14 14 14 14 15 16 16 16 16 16 16 16 15 15 15 15 14 14 14 14 14 14 14 14 14 14 14 13 13 13 13 13 13 13 13 13 13 13 13 13
18 17 16 14 14 15 15 15 15 13 14 15 15 15 16 16 16 16 16 16 15 15 15 15 14 14 14 14 14 14 14 14 14 14 14 14 13 13 13 13 13 13 13 12 12 13 13 13 13
17 16 15 15 14 15 15 15 14 15 15 15 15 15 16 16 15 15 15 15 15 15 15 15 14 14 14 14 14 14 14 14 14 14 13 13 13 13 13 13 13 12 12 12 12 12 12 12 12
17 16 15 15 15 14 15 14 15 15 15 16 16 16 16 16 15 15 15 15 15 15 15 15 14 14 14 14 14 14 13 13 13 13 13 13 13 13 13 12 12 12 12 12 12 12 12 12 12
16 15 15 14 14 14 14 14 14 15 14 14 15 15 15 15 15 15 15 15 15 15 15 14 14 14 14 14 13 13 13 13 13 13 13 13 13 12 12 12 12 12 12 12 12 12 12 12 12
16 14 13 14 14 14 15 14 14 14 14 14 13 14 15 15 15 15 15 15 15 15 15 14 14 14 14 13 13 13 13 13 13 13 13 13 12 12 12 12 12 12 12 11 11 11 11 11 11
16 15 13 12 13 13 14 14 15 14 14 13 13 14 14 15 15 15 15 15 15 14 14 14 14 14 13 13 13 13 13 13 12 12 12 12 12 12 12 12 12 11 11 11 11 11 11 11 11
16 15 13 14 13 12 12 13 14 13 13 13 13 14 14 14 15 15 15 14 14 14 14 14 13 13 13 13 13 13 12 12 12 12 12 12 12 12 11 11 11 11 11 11 11 11 11 11 11
Wind_Speed
2 4 3 4 6 6 3 2 1 2 3 2 4 6 6 4 3 2 2 1 1 2 3 4 7 8 9 10 9 9 9 9 10 11 12 12 11 11 11 10 11 11 12 11 11 11 11 11 11
2 3 5 5 5 4 2 2 1 1 3 4 5 5 5 4 2 2 1 1 2 2 3 4 7 8 9 10 10 10 11 11 11 12 12 12 12 11 11 11 11 12 12 12 12 12 11 11 12
3 4 5 5 4 4 2 0 2 3 3 2 4 4 4 2 1 1 1 1 3 3 4 4 7 8 9 10 11 11 12 13 13 12 12 12 12 11 11 12 12 13 12 13 13 12 12 12 12
4 5 5 6 5 1 2 2 3 3 3 4 4 4 3 3 1 1 2 3 4 4 5 5 8 9 10 10 11 12 12 12 12 12 12 12 11 12 12 12 12 13 13 13 12 12 12 12 12
4 5 6 4 3 1 0 1 2 3 3 3 4 4 3 4 4 4 4 4 4 4 5 6 8 9 10 11 11 11 12 12 11 12 12 12 12 12 12 12 12 12 13 12 12 12 12 12 12
5 5 5 3 1 2 1 1 3 4 3 3 4 3 2 2 4 4 4 4 4 4 5 6 8 9 10 11 11 11 11 11 11 11 12 12 12 11 12 12 12 12 13 13 13 13 13 13 12
5 5 4 4 2 1 0 1 3 4 3 2 3 4 1 2 2 3 4 5 5 5 5 6 7 8 9 10 10 11 11 11 11 11 11 12 12 12 12 12 12 12 12 13 13 13 13 13 13
5 5 4 3 3 1 0 2 2 3 3 2 3 5 3 2 2 5 6 6 5 5 5 5 7 8 8 8 9 10 11 11 11 11 11 12 12 12 12 12 12 12 13 13 13 14 13 14 14
4 5 3 4 5 2 1 3 3 3 5 4 3 3 3 6 6 7 6 5 4 4 4 4 5 6 7 7 8 9 10 11 11 10 11 11 10 10 10 11 12 12 12 13 13 14 14 14 14
4 4 4 4 5 4 3 4 3 4 5 4 5 5 7 7 7 6 5 4 3 3 3 3 4 5 6 6 7 8 8 9 10 9 10 10 10 10 10 11 12 12 12 13 13 13 12 12 10
4 5 3 2 4 5 5 3 3 6 2 3 6 7 7 7 6 5 4 2 2 2 3 3 3 4 5 5 6 6 6 7 8 9 9 9 9 9 9 9 9 10 11 10 10 10 10 9 8
4 1 3 2 3 4 5 4 4 3 3 4 8 10 9 7 6 5 4 2 2 3 2 3 3 4 4 5 5 5 4 5 5 7 7 7 6 6 6 6 7 8 7 8 8 7 9 9 9
3 2 2 4 5 5 6 5 5 2 3 7 9 9 8 7 4 3 3 3 3 3 2 2 3 3 3 4 3 4 4 4 5 5 6 7 5 4 5 5 6 6 7 6 6 7 7 7 7
3 4 3 4 5 3 6 3 3 1 5 9 9 7 6 5 4 4 3 2 2 2 2 2 3 3 4 3 3 2 3 3 4 5 5 6 5 4 4 4 5 5 6 6 6 6 6 5 6
5 5 5 2 3 2 6 4 0 2 7 8 7 6 5 4 3 4 4 3 3 2 2 3 3 4 4 3 3 3 3 4 4 4 5 5 5 5 5 4 4 5 6 7 7 7 6 5 6
4 4 1 2 2 2 5 2 2 4 8 6 5 4 4 3 3 3 3 3 3 3 3 2 3 4 3 3 3 3 3 4 3 3 4 4 4 5 5 4 3 4 6 5 4 4 5 5 5
3 3 2 2 2 3 4 3 2 5 7 6 5 5 4 3 2 2 3 3 3 3 3 3 3 3 3 3 3 4 4 4 3 3 3 4 4 5 5 4 3 4 4 4 4 4 4 4 4
4 3 2 3 2 5 4 3 2 4 6 6 5 5 4 4 4 3 3 3 3 3 3 3 3 3 3 3 4 4 4 4 4 4 3 4 4 5 5 4 4 4 4 3 4 4 4 3 3
5 5 3 3 2 5 4 4 4 5 5 6 6 6 5 5 3 2 3 3 3 3 3 3 3 3 3 2 2 2 2 2 3 3 4 4 4 4 5 3 3 3 3 2 3 3 4 3 2
5 4 2 1 1 4 3 4 3 4 6 6 7 7 6 5 2 3 3 3 4 3 3 2 2 2 2 2 1 1 1 2 2 3 5 6 5 4 4 3 2 2 2 3 3 2 2 1 2
4 7 6 3 2 2 1 3 2 2 2 3 4 4 5 6 6 5 4 4 4 4 4 4 3 3 2 3 3 3 3 3 3 4 3 4 4 5 4 3 3 2 2 2 1 2 2 1 1
5 6 6 5 3 2 2 3 5 3 2 4 5 5 5 5 5 5 5 5 5 5 4 4 3 3 2 3 4 4 2 1 0 1 1 3 4 4 4 3 3 2 1 1 1 1 1 2 1
5 3 4 3 3 1 0 2 6 1 4 6 7 7 6 6 6 6 6 7 5 4 4 4 3 3 2 3 4 4 2 1 1 1 2 3 3 4 4 3 3 2 1 0 0 1 1 1 1
5 6 5 5 4 2 4 4 6 4 6 6 6 6 6 6 6 5 5 4 3 3 4 4 4 3 2 3 3 4 3 2 2 1 1 1 2 2 3 3 2 2 1 0 0 1 1 1 1
6 5 2 2 1 5 2 4 7 5 5 6 6 6 5 5 5 4 4 4 4 4 4 4 4 3 3 3 3 3 3 3 3 2 1 0 1 1 2 2 1 1 1 0 1 0 1 1 1
4 7 6 5 4 4 1 6 6 4 2 3 4 4 4 5 5 5 5 6 5 5 5 5 5 3 3 3 3 2 2 2 2 2 1 1 1 1 1 1 0 0 0 0 0 0 1 1 1
5 4 5 5 2 1 5 5 6 1 2 1 1 3 4 5 5 5 5 5 5 5 5 5 5 4 3 3 2 2 1 1 1 1 1 1 1 0 0 0 0 1 0 0 0 0 1 0 1
4 8 6 5 4 3 4 4 4 4 4 2 2 3 4 4 4 4 5 5 5 5 4 4 4 5 4 3 3 3 2 2 2 1 1 1 1 0 0 0 0 0 1 1 1 0 1 0 0
4 4 5 5 5 5 3 6 4 5 5 5 4 4 4 4 5 5 5 5 4 3 3 4 3 2 2 3 3 2 2 2 2 2 2 2 1 1 1 1 1 0 0 0 0 0 0 0 1
3 5 6 5 4 4 4 6 3 2 3 3 3 2 2 3 3 3 4 3 3 3 3 3 3 3 2 2 2 2 2 2 2 1 2 1 1 1 1 1 1 1 0 0 1 1 0 1 1
Wind_Direction
19 74 70 55 54 55 54 356 13 43 53 46 62 79 89 81 86 135 284 332 12 9 353 30 45 53 58 60 62 64 66 71 85 87 85 83 82 84 88 89 90 88 88 86 85 85 83 80 79
83 77 55 59 79 80 15 333 59 71 140 129 71 70 71 61 64 103 341 331 57 47 30 47 53 59 62 61 61 62 65 73 82 86 85 84 82 80 84 87 87 86 84 82 81 81 80 79 79
86 58 75 70 86 129 141 237 124 82 96 93 73 60 75 66 76 132 239 95 68 48 46 53 53 62 64 63 63 66 68 73 79 82 83 83 83 80 81 84 83 83 82 81 79 77 79 78 77
78 47 55 71 83 155 163 154 126 105 60 48 89 68 57 26 111 149 120 94 73 45 43 52 56 62 63 63 64 66 68 72 76 78 80 82 83 81 83 82 81 80 79 78 77 76 78 78 77
62 73 67 64 52 2 319 181 123 95 72 55 85 86 43 357 70 97 95 86 78 50 42 56 65 66 64 64 63 65 67 68 73 74 76 79 80 80 79 79 79 78 77 77 76 76 78 78 76
59 69 88 108 75 351 6 105 104 90 91 84 93 98 50 20 80 100 94 83 77 66 51 56 66 68 68 66 65 66 68 69 70 73 73 76 78 78 77 75 75 76 78 77 76 76 78 76 75
98 90 113 132 116 21 200 106 117 116 103 116 121 105 80 27 68 104 90 75 65 63 59 52 53 62 66 65 66 66 66 68 69 72 73 73 77 78 76 74 74 76 80 78 77 77 79 77 75
115 100 95 122 136 192 158 104 100 106 117 107 104 128 166 194 108 86 73 62 60 60 56 52 51 53 54 57 63 66 66 65 66 69 72 71 71 72 73 71 74 76 77 75 74 73 73 74 72
88 82 132 175 166 182 151 107 76 70 93 73 70 111 131 125 105 84 68 52 50 55 45 51 50 49 52 56 58 60 60 58 59 61 65 63 60 60 61 68 70 73 75 74 74 73 71 71 69
85 119 186 190 172 152 122 106 118 87 77 71 67 65 97 111 109 105 98 83 66 59 46 47 49 46 50 58 57 54 54 54 56 58 60 62 60 57 58 62 64 68 71 72 70 70 69 66 61
105 148 165 148 150 130 114 93 96 118 110 172 147 131 122 115 114 117 116 114 113 93 72 58 54 54 55 53 57 56 56 54 55 57 63 66 60 55 54 54 53 57 63 61 59 59 59 61 61
103 123 149 139 118 115 119 113 94 113 177 163 144 138 130 127 133 140 142 129 100 84 82 67 64 62 59 62 58 53 52 52 52 56 66 70 63 54 51 53 51 56 60 62 60 64 61 61 59
97 91 75 97 96 104 98 98 116 108 107 110 116 122 132 140 145 156 150 129 110 96 82 75 77 74 66 62 58 57 53 54 55 61 64 73 71 60 55 56 57 58 64 68 67 68 66 61 58
128 103 83 80 90 89 103 81 94 139 121 118 128 138 149 152 151 132 126 125 127 121 102 81 79 83 82 74 62 56 59 62 63 63 64 74 78 76 66 58 56 58 64 71 73 72 71 65 62
99 83 56 59 101 119 99 52 193 170 129 133 147 154 157 165 155 154 165 163 163 147 109 93 92 74 75 71 59 58 58 72 65 58 62 66 77 85 80 67 59 61 71 76 76 69 70 68 61
86 86 83 284 127 135 120 196 253 145 139 151 166 170 169 175 175 177 163 150 147 131 114 101 101 88 80 75 65 64 66 71 67 62 64 61 72 86 85 76 67 70 80 82 83 73 72 62 57
63 135 182 265 158 131 136 203 236 151 151 168 181 183 182 189 200 196 173 160 150 142 128 106 93 94 82 74 66 64 68 66 61 59 60 60 76 87 88 78 75 78 79 76 84 74 80 78 65
181 169 180 216 188 129 152 213 233 174 169 184 189 191 198 202 216 208 181 159 143 133 123 118 102 93 83 68 58 47 46 43 47 49 47 54 74 86 90 84 73 79 78 69 79 84 71 74 73
158 153 179 221 178 144 192 218 229 193 186 196 200 199 206 219 223 187 167 152 131 117 116 125 116 108 96 71 64 55 33 22 27 36 45 54 71 85 93 85 75 77 86 88 95 99 83 62 62
154 162 197 295 121 165 206 248 247 200 201 202 201 204 206 211 201 183 172 156 155 155 145 137 136 125 114 97 89 94 78 44 31 23 39 44 55 67 88 95 89 79 86 80 79 94 97 63 49
182 187 196 184 68 56 110 310 275 246 205 203 201 200 199 198 198 193 186 180 168 171 176 172 164 146 127 104 83 59 48 36 26 19 18 19 44 58 70 88 99 90 100 122 119 116 120 134 40
211 204 178 163 139 249 165 260 277 240 232 222 218 209 211 207 194 188 187 187 190 193 185 171 161 149 135 122 114 112 109 105 292 345 10 14 34 47 57 71 85 93 98 120 183 127 123 135 143
192 143 138 148 147 84 33 195 278 245 239 242 227 218 216 205 193 194 196 196 192 182 176 169 153 145 136 137 139 131 119 129 88 54 52 30 24 37 49 64 72 72 75 103 99 100 121 137 159
131 86 68 59 84 245 234 192 269 229 221 233 226 218 211 200 197 199 195 178 171 167 165 161 155 155 148 151 148 147 148 141 112 68 55 22 16 19 27 53 61 55 47 71 173 138 147 177 147
110 103 56 4 354 250 231 206 249 249 229 215 217 216 204 190 186 187 178 177 176 175 177 174 169 170 170 161 161 171 172 166 169 175 182 179 7 348 337 15 29 20 345 256 145 131 227 211 172
160 149 163 195 216 264 248 231 252 260 258 214 206 200 181 179 183 189 190 189 188 185 183 180 182 183 183 180 188 181 168 171 192 193 188 211 237 248 277 343 351 327 305 330 131 103 249 213 200
142 164 156 137 156 228 266 282 295 292 16 43 165 163 178 189 189 190 189 187 187 186 189 186 184 188 193 191 187 183 177 173 186 187 172 191 232 274 347 324 5 351 347 358 112 249 273 256 207
138 142 111 132 165 239 277 266 251 245 238 244 232 217 216 196 191 188 189 190 191 191 188 180 180 189 194 188 191 195 195 196 184 152 163 188 226 304 113 320 50 358 4 30 82 338 300 176 242
115 114 122 131 158 167 247 269 237 220 213 217 231 223 208 202 198 194 193 191 185 175 169 173 176 172 182 192 195 180 185 183 156 162 190 195 209 209 200 215 200 198 313 29 98 317 322 201 267
159 163 150 160 206 176 184 265 311 231 208 202 225 211 183 187 192 187 181 172 166 168 174 180 181 181 190 186 175 178 173 158 156 193 214 201 201 226 223 220 201 219 234 218 198 240 275 212 248
Height
1491 1491 1492 1493 1498 1511 1517 1513 1509 1508 1509 1509 1509 1509 1511 1514 1518 1522 1518 1515 1514 1513 1511 1510 1508 1506 1505 1503 1502 1500 1498 1495 1496 1500 1503 1504 1504 1505 1506 1506 1507 1507 1508 1508 1509 1509 1510 1510 1510
1492 1492 1494 1495 1508 1523 1520 1512 1510 1509 1509 1510 1510 1511 1513 1515 1516 1517 1516 1516 1515 1514 1513 1512 1510 1509 1507 1506 1505 1502 1498 1495 1496 1501 1504 1505 1506 1507 1507 1508 1508 1509 1509 1510 1510 1510 1511 1511 1512
1493 1493 1496 1500 1514 1521 1518 1511 1510 1510 1510 1510 1512 1513 1515 1517 1517 1518 1518 1517 1516 1515 1515 1513 1513 1511 1510 1509 1508 1506 1503 1501 1502 1505 1506 1507 1508 1508 1509 1509 1510 1510 1511 1511 1512 1512 1512 1513 1513
1494 1496 1498 1508 1516 1515 1512 1510 1510 1510 1511 1512 1513 1516 1517 1519 1519 1519 1518 1518 1518 1517 1516 1515 1514 1514 1513 1512 1511 1510 1508 1508 1508 1508 1509 1510 1510 1510 1511 1511 1512 1512 1512 1513 1513 1514 1514 1514 1514
1495 1497 1507 1516 1516 1513 1510 1510 1511 1511 1512 1514 1514 1517 1519 1520 1520 1520 1519 1519 1519 1518 1518 1517 1516 1516 1515 1514 1514 1513 1512 1512 1512 1512 1512 1512 1512 1513 1513 1513 1513 1513 1514 1514 1514 1515 1515 1516 1516
1496 1500 1516 1522 1517 1513 1511 1511 1511 1512 1513 1515 1516 1518 1520 1522 1521 1521 1521 1521 1520 1520 1519 1519 1518 1518 1517 1517 1516 1516 1516 1515 1515 1514 1514 1515 1515 1515 1515 1515 1515 1515 1515 1516 1516 1516 1517 1517 1518
1498 1506 1516 1518 1518 1515 1512 1511 1512 1513 1514 1516 1517 1519 1521 1522 1523 1522 1522 1522 1522 1521 1521 1521 1520 1520 1520 1519 1519 1519 1518 1518 1517 1517 1517 1517 1517 1517 1517 1517 1517 1517 1517 1518 1518 1518 1519 1519 1519
1498 1506 1515 1518 1518 1516 1512 1512 1513 1513 1515 1517 1518 1519 1521 1523 1523 1523 1523 1524 1523 1523 1523 1523 1522 1522 1522 1522 1521 1521 1521 1520 1520 1520 1520 1519 1519 1519 1519 1519 1519 1519 1519 1520 1520 1520 1520 1521 1521
1500 1511 1518 1517 1516 1514 1512 1513 1514 1515 1516 1518 1519 1520 1522 1523 1523 1524 1524 1524 1524 1524 1524 1524 1524 1524 1524 1524 1523 1523 1523 1522 1522 1522 1522 1522 1522 1521 1521 1521 1521 1521 1521 1522 1522 1522 1522 1522 1522
1501 1513 1512 1510 1510 1511 1512 1513 1514 1516 1517 1519 1520 1521 1522 1523 1524 1524 1525 1525 1525 1525 1526 1526 1526 1525 1525 1525 1525 1525 1525 1524 1524 1524 1524 1524 1524 1523 1523 1523 1523 1523 1523 1524 1524 1524 1524 1524 1524
1502 1508 1507 1508 1508 1510 1512 1514 1515 1516 1519 1519 1520 1521 1523 1524 1525 1525 1526 1526 1527 1527 1527 1527 1527 1527 1527 1527 1527 1527 1526 1526 1526 1526 1526 1526 1525 1525 1525 1525 1524 1524 1525 1525 1525 1525 1526 1526 1526
1504 1506 1506 1508 1509 1511 1512 1515 1517 1518 1519 1520 1520 1522 1523 1524 1525 1526 1527 1528 1528 1528 1528 1528 1528 1528 1528 1528 1528 1528 1528 1528 1528 1528 1528 1528 1527 1527 1527 1526 1526 1526 1526 1526 1527 1527 1527 1527 1527
1505 1507 1508 1509 1510 1512 1513 1515 1517 1519 1519 1520 1522 1523 1524 1525 1526 1527 1528 1529 1529 1529 1529 1530 1530 1530 1530 1530 1530 1530 1530 1530 1530 1529 1529 1529 1529 1529 1529 1528 1528 1528 1528 1528 1528 1528 1528 1529 1529
1505 1507 1509 1510 1512 1513 1515 1517 1518 1519 1520 1520 1522 1524 1525 1526 1527 1528 1529 1529 1530 1530 1531 1531 1531 1531 1531 1531 1531 1531 1531 1531 1531 1531 1531 1531 1531 1530 1530 1530 1530 1530 1530 1530 1530 1530 1530 1530 1530
1506 1509 1512 1512 1513 1515 1516 1521 1520 1520 1520 1521 1523 1524 1526 1527 1528 1528 1529 1530 1531 1531 1532 1532 1532 1532 1532 1532 1532 1532 1532 1532 1532 1532 1532 1533 1532 1532 1532 1532 1532 1532 1532 1531 1532 1532 1531 1531 1532
1508 1514 1520 1515 1513 1515 1520 1526 1520 1520 1520 1522 1523 1525 1526 1528 1528 1529 1530 1531 1531 1532 1532 1533 1533 1533 1533 1533 1533 1533 1533 1533 1533 1534 1534 1534 1534 1534 1534 1533 1533 1533 1533 1533 1533 1533 1533 1533 1533
1515 1521 1521 1517 1513 1515 1519 1524 1520 1520 1520 1522 1523 1524 1526 1527 1528 1529 1530 1531 1532 1532 1533 1533 1534 1534 1534 1534 1534 1534 1534 1534 1534 1535 1535 1535 1535 1535 1535 1535 1535 1535 1535 1535 1534 1534 1534 1534 1534
1519 1520 1519 1519 1515 1516 1520 1522 1520 1520 1520 1521 1523 1524 1525 1526 1527 1529 1530 1531 1532 1533 1533 1534 1534 1534 1535 1535 1535 1535 1535 1535 1535 1535 1535 1536 1536 1536 1536 1536 1536 1536 1536 1536 1535 1535 1535 1535 1534
1511 1517 1519 1517 1514 1517 1521 1521 1520 1520 1520 1521 1522 1523 1524 1525 1527 1529 1530 1531 1531 1532 1533 1534 1534 1535 1535 1535 1535 1535 1535 1536 1536 1536 1536 1536 1536 1536 1536 1536 1536 1536 1536 1536 1536 1536 1536 1535 1535
1511 1517 1519 1516 1514 1518 1521 1521 1519 1518 1518 1519 1520 1521 1522 1524 1526 1527 1529 1530 1531 1532 1533 1534 1534 1535 1535 1536 1536 1536 1536 1536 1537 1537 1537 1537 1537 1537 1537 1536 1536 1536 1537 1537 1536 1536 1536 1536 1536
1511 1515 1516 1517 1517 1518 1521 1524 1520 1518 1517 1518 1518 1519 1520 1522 1524 1525 1527 1529 1530 1531 1532 1533 1534 1535 1536 1536 1537 1537 1537 1537 1537 1537 1537 1537 1537 1537 1537 1537 1536 1536 1537 1537 1537 1537 1537 1536 1536
1513 1508 1510 1514 1522 1528 1525 1535 1522 1518 1517 1516 1516 1517 1518 1520 1522 1523 1525 1527 1528 1530 1531 1533 1534 1535 1536 1536 1536 1537 1537 1537 1537 1537 1537 1537 1537 1537 1537 1537 1536 1536 1536 1536 1536 1537 1536 1536 1536
1506 1505 1510 1514 1521 1529 1528 1533 1527 1519 1518 1515 1514 1514 1515 1517 1519 1521 1523 1525 1527 1529 1530 1532 1533 1534 1535 1536 1536 1537 1537 1537 1537 1537 1537 1537 1537 1537 1537 1536 1536 1536 1536 1536 1536 1536 1536 1536 1536
1503 1509 1515 1521 1527 1535 1528 1533 1529 1521 1515 1512 1511 1511 1512 1514 1516 1519 1521 1524 1525 1527 1528 1530 1532 1533 1534 1535 1536 1536 1536 1537 1537 1537 1537 1536 1536 1536 1536 1536 1536 1535 1535 1535 1535 1535 1535 1535 1535
1505 1518 1532 1535 1540 1537 1526 1529 1525 1511 1508 1507 1507 1508 1510 1512 1514 1517 1519 1521 1523 1525 1526 1528 1530 1531 1533 1534 1534 1535 1535 1536 1536 1536 1536 1536 1535 1535 1535 1535 1534 1534 1534 1534 1534 1534 1534 1534 1533
1506 1513 1530 1539 1541 1536 1527 1528 1517 1507 1505 1505 1505 1507 1508 1510 1512 1514 1516 1519 1521 1523 1525 1527 1528 1530 1531 1532 1533 1534 1534 1535 1535 1535 1535 1535 1535 1535 1534 1534 1534 1533 1532 1532 1532 1532 1532 1532 1532
1507 1513 1514 1528 1532 1536 1532 1523 1513 1505 1505 1504 1505 1505 1507 1508 1510 1512 1515 1517 1519 1521 1523 1525 1527 1528 1530 1531 1532 1532 1533 1533 1533 1534 1534 1534 1534 1534 1533 1533 1532 1532 1531 1531 1531 1530 1530 1530 1530
1501 1508 1520 1528 1536 1538 1530 1526 1520 1509 1507 1505 1505 1505 1505 1507 1509 1511 1513 1515 1517 1519 1521 1523 1525 1527 1528 1529 1530 1530 1531 1532 1532 1532 1532 1532 1532 1532 1532 1531 1531 1530 1530 1530 1529 1529 1529 1529 1528
1505 1510 1516 1525 1528 1536 1536 1527 1506 1505 1504 1504 1504 1504 1504 1506 1507 1509 1511 1513 1515 1518 1519 1521 1523 1524 1525 1526 1527 1528 1529 1529 1530 1530 1530 1531 1531 1531 1530 1530 1529 1529 1529 1528 1528 1527 1527 1527 1527
1499 1505 1513 1522 1526 1530 1533 1526 1503 1502 1502 1502 1502 1503 1504 1505 1506 1508 1510 1512 1514 1516 1517 1519 1520 1522 1523 1524 1525 1526 1526 1527 1527 1528 1528 1528 1529 1528 1528 1528 1527 1527 1527 1526 1526 1526 1525 1525 1525